Regional Weather Roundup
Issued by NWS Sioux Falls, SD

Home | Current Version | Previous Version | Graphics & Text | Print | Product List | Glossary Off
Versions: 1 2 3 4 5 6 7 8 9 10 11 12 13 14 15 16 17 18 19 20 21 22 23 24 25 26 27 28 29 30 31 32 33 34 35 36 37 38 39 40 41 42 43 44 45 46 47 48 49 50

000
ASUS43 KFSD 281602
RWRFSD

WEATHER ROUNDUP FOR SE SOUTH DAKOTA/SW MINNESOTA/NW IOWA
NATIONAL WEATHER SERVICE SIOUX FALLS SD
1100 AM CDT TUE JUL 28 2015

NOTE: "FAIR" INDICATES FEW OR NO CLOUDS BELOW 12,000 FEET WITH NO
SIGNIFICANT WEATHER AND OR OBSTRUCTIONS TO VISIBILITY.


SDZ038>040-050-052>070-281700-
SOUTHEAST SOUTH DAKOTA

CITY           SKY/WX    TMP DP  RH WIND       PRES   REMARKS
BROOKINGS      PTSUNNY   75  68  78 W20G26    29.84R
CHAMBERLAIN    NOT AVBL
HURON          SUNNY     71  61  70 W15       29.87R
MADISON        CLOUDY    72  72 100 W21       29.85R
MITCHELL       MOSUNNY   73  62  68 NW15      29.88R
SIOUX FALLS    MOSUNNY   79  70  74 W9G17     29.83R
WINNER         FAIR      71  51  49 NW22G28   29.97R
YANKTON        CLOUDY   N/A N/A N/A MISG        N/A
$$

MNZ071-072-080-081-089-090-097-098-281700-
SOUTHWEST MINNESOTA

CITY           SKY/WX    TMP DP  RH WIND       PRES   REMARKS
FAIRMONT       CLOUDY    73  66  78 S9        29.84R
JACKSON        CLOUDY    73  70  88 S15       29.85R
LUVERNE        MOSUNNY   79  68  69 SW16      29.84R
MARSHALL       MOSUNNY   81  66  61 SW8       29.80S
MONTEVIDEO     CLOUDY    81  79  94 NW9       29.80F
PIPESTONE      MOSUNNY   79  70  73 SW14      29.83R
REDWOOD FALLS  CLOUDY    73  68  84 SE7       29.82R
WINDOM         CLOUDY    75  70  83 S10       29.84R
WORTHINGTON    PTSUNNY   75  66  73 S17       29.84R
$$

IAZ001>003-012>014-020>022-031-032-NEZ013-014-SDZ071-281700-
NORTHWEST IOWA

CITY           SKY/WX    TMP DP  RH WIND       PRES   REMARKS
DENISON        CLOUDY    70  68  94 S12G18    29.79F
ESTHERVILLE    CLOUDY    72  70  93 S10       29.85R
SIOUX CITY     PTSUNNY   74  69  85 SE7       29.84R
SPENCER        CLOUDY    74  68  81 S12       29.85F
$$

ABBREVIATIONS USED IN REMARKS
   TC - TEMPERATURE IN CELSIUS
  WCI - WIND CHILL INDEX
   HX - HEAT INDEX
  VSB - VISIBILITY




USA.gov is the U.S. government's official web portal to all federal, state and local government web resources and services.